Regional Weather Roundup
Issued by NWS New Orleans/Baton Rouge, LA

Home | Current Version | Previous Version | Text Only | Print | Product List | Glossary Off
Versions: 1 2 3 4 5 6 7 8 9 10 11 12 13 14 15 16 17 18 19 20 21 22 23 24 25 26 27 28 29 30 31 32 33 34 35 36 37 38 39 40 41 42 43 44 45 46 47 48 49 50

629
ASUS44 KLIX 031401
RWRLIX
NEW ORLEANS REGIONAL WEATHER ROUNDUP
NATIONAL WEATHER SERVICE NEW ORLEANS LA
800 AM CST TUE MAR 03 2015

NOTE: "FAIR" INDICATES FEW OR NO CLOUDS BELOW 12,000 FEET WITH NO
      SIGNIFICANT WEATHER AND/OR OBSTRUCTIONS TO VISIBILITY.
      SKY/WX - SKY CONDITION AND SIGNIFICANT WEATHER.
      TMP - AIR TEMPERATURE.     DP    - DEWPOINT TEMPERATURE.
      RH  - RELATIVE HUMIDITY.   PRES  - PRESSURE.
      HI  - HEAT INDEX.          WCI   - WIND CHILL INDEX.

*  THESE STATIONS ARE NOT NWS OR FAA STATIONS AND ARE NOT UNDER
   NWS QUALITY CONTROL.

LAZ038-040-048-061>063-065>067-069-031500-
SOUTHEAST LOUISIANA

CITY           SKY/WX    TMP DP  RH WIND       PRES   REMARKS
N.O. AUDUBON   NOT AVBL
N.O. INTL ARPT CLOUDY    68  66  93 SE7       30.13S FOG
N.O. LAKEFRONT FOG       68  65  90 SE8       30.14R VSB 1/4
SLIDELL        FOG       66  66 100 SE7       30.14R VSB 1/4
BATON ROUGE    FOG       63  63 100 E3        30.11S VSB<1/4
BOOTHVILLE     FOG       65  65 100 SE5       30.15S VSB 3/4
BELLE CHASSE   FOG       68  65  90 SE8       30.13S VSB 3/4
BOGALUSA*      FOG       66  64  91 S5        30.16R VSB 1/4
GALLIANO*      CLOUDY    57  56  98 SE3       30.13S
NEW ROADS*     NOT AVBL
GONZALES*      NOT AVBL
HAMMOND*       NOT AVBL
HOUMA*         MOSUNNY  N/A N/A N/A E6        30.12S
PORT FOURCHON* MOSUNNY   68  68 100 SE9G16    30.16S

$$

MSZ070-080>082-031500-
SOUTHERN MISSISSIPPI

CITY           SKY/WX    TMP DP  RH WIND       PRES   REMARKS
MCCOMB         FOG       64  64 100 SE5       30.13S VSB 1/4
GULFPORT       CLOUDY    64  63  96 SE8       30.16R FOG
BILOXI         MOSUNNY   66  66 100 SE9       30.16R FOG
PASCAGOULA     CLOUDY    63  63 100 SE5       30.17R
STENNIS ARPT*  CLOUDY    64  63  94 SE3       30.16R

$$

COASTAL OBSERVATIONS
LAKE AND NEARSHORE STATIONS

STATION/POSITION TIME  TEMP    WIND        PRES    WAVE
                       AIR SEA DIR/SP/G            HT/PER
                 (UTC) (F)     (DEG/KT/KT) (MB)    (FT/S)
PASCAGOULA       1300   63     120/  4/  7 1020.9
WAVELAND YACHT   1300      56                N/A
GRAND ISLE       1300      62                N/A
SOUTHWEST PASS   1300      45                N/A
NEW CANAL        1300   65     150/  3/  4 1020.7
SHELL BEACH      1300      57                N/A

OFFSHORE STATIONS

STATION/POSITION TIME  TEMP    WIND        PRES    WAVE
                       AIR SEA DIR/SP/G            HT/PER
                 (UTC) (F)     (DEG/KT/KT) (MB)    (FT/S)
64 S DAUPHIN ISL 1320   71 71  140/ 10/ 12 1021.6    2/ 6

$$




USA.gov is the U.S. government's official web portal to all federal, state and local government web resources and services.